Weather History for Lakeland Region, FL

Change the Weather History Date:

Wednesday, July 3, 2013

  Actual Average Record
Temperature  
Mean Temperature 80 °F -  
Max Temperature 89 °F 88 °F 96 °F (1997)
Min Temperature 71 °F 71 °F 71 °F (1988)
Cooling Degree Days 15    
Growing Degree Days 30 (Base 50)    
Moisture  
Dew Point 72 °F    
Average Humidity 92    
Maximum Humidity 100    
Minimum Humidity 55    
Precipitation  
Precipitation 0.00 in - - ()
Sea Level Pressure  
Sea Level Pressure 30.10 in    
Wind  
Wind Speed 5 mph (ESE)    
Max Wind Speed 16 mph    
Max Gust Speed 23 mph    
Visibility 10 miles    
Events Rain    
Averages and records for this station are not official NWS values.
T = Trace of Precipitation, MM = Missing Value Source: NWS Daily Summary

Daily Weather History Graph

Daily Weather History Graph

Search for Another Location

Airport:

Trip Planner

Search our weather history database for the weather conditions in past years. The results will help you decide how hot, cold, wet, or windy it might be!

Date:

Astronomy

Jul. 03, 2013 Rise Set
Actual Time 6:36 AM EDT 8:28 PM EDT
Civil Twilight 6:09 AM EDT 8:55 PM EDT
Nautical Twilight 5:37 AM EDT 9:27 PM EDT
Astronomical Twilight 5:03 AM EDT 10:01 PM EDT
Moon 3:03 AM EDT (7/3) 4:45 PM EDT (7/3)
Length of Visible Light 14h 45m
Length of Day
13h 52m
Waning Crescent, 18% of the Moon is Illuminated
Jul 3
Waning Crescent
Jul 8
New
Jul 15
First Quarter
Jul 22
Full
Jul 29
Last Quarter

Hourly Weather History & Observations

Time (EDT) Temp. Heat Index Dew Point Humidity Pressure Visibility Wind Dir Wind Speed Gust Speed Precip Events Conditions
12:15 AM 71.6 °F - 71.6 °F 100% 30.11 in 10.0 mi SE 3.5 mph - N/A   Scattered Clouds
12:35 AM 71.6 °F - 69.8 °F 94% 30.11 in 10.0 mi ESE 5.8 mph - N/A   Scattered Clouds
12:55 AM 71.6 °F - 71.6 °F 100% 30.10 in 10.0 mi SE 4.6 mph - N/A   Clear
1:15 AM 71.6 °F - 71.6 °F 100% 30.10 in 10.0 mi ESE 3.5 mph - N/A   Clear
1:35 AM 71.6 °F - 69.8 °F 94% 30.10 in 10.0 mi ESE 6.9 mph - N/A   Clear
1:55 AM 71.6 °F - 71.6 °F 100% 30.09 in 10.0 mi East 3.5 mph - N/A   Clear
2:15 AM 71.6 °F - 71.6 °F 100% 30.09 in 10.0 mi East 3.5 mph - N/A   Clear
2:35 AM 71.6 °F - 71.6 °F 100% 30.09 in 10.0 mi East 3.5 mph - N/A   Clear
2:55 AM 71.6 °F - 71.6 °F 100% 30.08 in 10.0 mi ENE 3.5 mph - N/A   Clear
3:15 AM 71.6 °F - 71.6 °F 100% 30.08 in 10.0 mi East 3.5 mph - N/A   Scattered Clouds
3:35 AM 71.6 °F - 71.6 °F 100% 30.07 in 10.0 mi Calm Calm - N/A   Scattered Clouds
3:55 AM 71.6 °F - 71.6 °F 100% 30.08 in 10.0 mi Calm Calm - N/A   Mostly Cloudy
4:15 AM 71.6 °F - 71.6 °F 100% 30.08 in 10.0 mi SE 4.6 mph - N/A   Mostly Cloudy
4:35 AM 71.6 °F - 71.6 °F 100% 30.08 in 10.0 mi SE 5.8 mph - N/A   Mostly Cloudy
4:55 AM 71.6 °F - 71.6 °F 100% 30.08 in - SE 4.6 mph - N/A   Overcast
5:15 AM 71.6 °F - 71.6 °F 100% 30.08 in 4.0 mi ESE 3.5 mph - N/A   Overcast
5:35 AM 71.6 °F - 71.6 °F 100% 30.09 in 7.0 mi ESE 3.5 mph - N/A   Overcast
5:55 AM 71.6 °F - 71.6 °F 100% 30.09 in 10.0 mi East 3.5 mph - N/A   Mostly Cloudy
6:15 AM 71.6 °F - 69.8 °F 94% 30.08 in 10.0 mi East 3.5 mph - N/A   Scattered Clouds
6:35 AM 71.6 °F - 69.8 °F 94% 30.09 in 7.0 mi ESE 3.5 mph - N/A   Clear
6:50 AM 73.4 °F - 71.6 °F 94% 30.09 in 7.0 mi East 3.5 mph - N/A   Mostly Cloudy
7:54 AM 75.2 °F - 73.4 °F 94% 30.11 in 10.0 mi ESE 5.8 mph - N/A   Mostly Cloudy
8:54 AM 80.6 °F 86.2 °F 75.2 °F 84% 30.12 in 10.0 mi ESE 10.4 mph - N/A   Mostly Cloudy
9:53 AM 82.4 °F 89.5 °F 75.2 °F 79% 30.13 in 7.0 mi SE 13.8 mph 18.4 mph N/A   Mostly Cloudy
11:52 AM 86.0 °F 91.8 °F 71.6 °F 62% 30.12 in 15.0 mi SE 11.5 mph - N/A   Mostly Cloudy
12:50 PM 87.8 °F 93.8 °F 71.6 °F 58% 30.10 in 15.0 mi SE 9.2 mph - N/A   Mostly Cloudy
1:50 PM 89.6 °F 96.2 °F 71.6 °F 55% 30.08 in 15.0 mi SE 9.2 mph - N/A   Mostly Cloudy
2:50 PM 78.8 °F - 69.8 °F 74% 30.09 in 12.0 mi SE 11.5 mph 23.0 mph N/A Rain Light Rain
3:50 PM 78.8 °F - 73.4 °F 83% 30.08 in 12.0 mi ESE 5.8 mph - N/A   Overcast
4:50 PM 78.8 °F - 73.4 °F 83% 30.08 in 3.0 mi SW 16.1 mph 21.9 mph N/A Rain Rain
5:17 PM 73.4 °F - 71.6 °F 94% 30.11 in 1.5 mi SSE 6.9 mph - N/A Rain Rain
5:50 PM 73.4 °F - 71.6 °F 94% 30.10 in 15.0 mi Variable 3.5 mph - N/A Rain Light Rain
6:55 PM 73.4 °F - 69.8 °F 88% 30.09 in 15.0 mi Calm Calm - N/A   Overcast
7:50 PM 73.4 °F - 71.6 °F 94% 30.11 in 15.0 mi Calm Calm - N/A   Overcast
8:50 PM 73.4 °F - 71.6 °F 94% 30.10 in 15.0 mi Calm Calm - N/A   Overcast
9:50 PM 73.4 °F - 71.6 °F 94% 30.12 in 15.0 mi East 5.8 mph - N/A   Overcast
10:55 PM 73.4 °F - 71.6 °F 94% 30.13 in 10.0 mi ESE 8.1 mph 16.1 mph N/A   Drizzle
11:15 PM 73.4 °F - 71.6 °F 94% 30.13 in 10.0 mi ESE 5.8 mph - N/A   Scattered Clouds
11:35 PM 73.4 °F - 71.6 °F 94% 30.15 in 10.0 mi ESE 5.8 mph - N/A   Scattered Clouds
11:55 PM 73.4 °F - 71.6 °F 94% 30.15 in 10.0 mi ESE 6.9 mph - N/A   Mostly Cloudy